Regional Weather Roundup
Issued by NWS

Home | Current Version | Previous Version | Graphics & Text | Print | Product List | Glossary Off
Versions: 1 2 3 4 5 6 7 8 9 10 11 12 13 14 15 16 17 18 19 20 21 22 23 24 25 26 27 28 29 30 31 32 33 34 35 36 37 38 39 40 41 42 43 44 45 46 47 48 49 50

000
ASUS43 KFSD 262010
RWRSD

WEATHER ROUNDUP FOR SOUTH DAKOTA
NATIONAL WEATHER SERVICE SIOUX FALLS SD
300 PM CDT THU MAY 26 2016

NOTE: "FAIR" INDICATES FEW OR NO CLOUDS BELOW 12,000 FEET WITH NO
SIGNIFICANT WEATHER AND/OR OBSTRUCTIONS TO VISIBILITY.


SDZ001>005-009-010-012>017-262100-
NORTHWEST AND NORTH CENTRAL SOUTH DAKOTA

CITY           SKY/WX    TMP DP  RH WIND       PRES   REMARKS
BUFFALO          N/A     67  41  38 W16       29.80F
FAITH            N/A     69  41  36 W9        29.84F
MOBRIDGE       FAIR      75  52  44 S15       29.79F
$$

SDZ012>016-024>037-041>051-057-063-072>074-262100-
SOUTHWEST AND SOUTH CENTRAL SOUTH DAKOTA

CITY           SKY/WX    TMP DP  RH WIND       PRES   REMARKS
RAPID CTY ARPT PTSUNNY   69  45  41 VRB7      29.87F
PIERRE         FAIR      74  54  49 S7        29.80F
CUSTER         FAIR      60  30  32 SW7G20    29.94S
ELLSWORTH AFB  CLOUDY    66  44  44 N10       29.88S
PHILIP         FAIR      73  50  44 CALM      29.84F
PINE RIDGE     FAIR      74  45  35 N9        29.87F
WINNER         FAIR      75  52  44 S10       29.83F
$$

SDZ004>011-016>023-039-040-262100-
NORTHEAST SOUTH DAKOTA

CITY           SKY/WX    TMP DP  RH WIND       PRES   REMARKS
ABERDEEN       FAIR      76  51  41 SW13G21   29.83F
WATERTOWN      FAIR      73  50  44 SW12      29.85F
BROOKINGS      FAIR      73  49  42 NW7       29.86F
SISSETON         N/A     77  48  35 W20G28    29.80F
$$

SDZ017-020-022-023-036>040-048>070-262100-
SOUTHEAST SOUTH DAKOTA

CITY           SKY/WX    TMP DP  RH WIND       PRES   REMARKS
SIOUX FALLS    PTSUNNY   75  54  47 CALM      29.85F
HURON          FAIR      74  52  46 W5        29.84F
CHAMBERLAIN    FAIR      76  58  53 S7        29.84F
MITCHELL       FAIR      73  53  49 S5        29.85F
YANKTON        FAIR      73  55  53 E7        29.85S
$$

ABBREVIATIONS USED IN REMARKS
   TC - TEMPERATURE IN CELSIUS
  WCI - WIND CHILL INDEX
   HX - HEAT INDEX
  VSB - VISIBILITY





USA.gov is the U.S. government's official web portal to all federal, state and local government web resources and services.